FW3683 Weather Reports


time (UTC)temp
C
wind
direction
speed
KPH
gust
KPH
rain 1hr
cm
rain 24hr
cm
rain mn
cm
humidity
%
barometer
mb
20260905143550 32 66 0.0 0.0 0.00 0.00 0.00 64 1017.5
20260905143045 32 8 0.0 0.0 0.00 0.00 0.00 65 1017.6
20260905142043 31 8 0.0 0.0 0.00 0.00 0.00 67 1017.6
20260905141542 31 8 0.0 0.0 0.00 0.00 0.00 70 1017.5
20260905141040 30 8 0.0 0.0 0.00 0.00 0.00 73 1017.6
20260905140540 30 58 0.0 0.0 0.00 0.00 0.00 71 1017.6
20260905140046 29 60 0.0 0.0 0.00 0.00 0.00 73 1017.6
20260905135541 28 60 0.0 0.0 0.00 0.00 0.00 75 1017.7
20260905135037 27 73 0.0 0.0 0.00 0.00 0.00 76 1017.7
20260905134546 27 74 0.0 0.0 0.00 0.00 0.00 76 1017.7
20260905134037 28 19 0.0 0.0 0.00 0.00 0.00 75 1017.9
20260905133533 28 15 0.0 0.0 0.00 0.00 0.00 76 1018.1
20260905133034 28 347 0.0 0.0 0.00 0.00 0.00 76 1017.8
20260905132035 27 339 0.0 0.0 0.00 0.00 0.00 77 1018.1
20260905131534 26 340 0.0 0.0 0.00 0.00 0.00 77 1018.2
20260905131034 26 340 0.0 0.0 0.00 0.00 0.00 76 1018.3
20260905130533 25 340 0.0 0.0 0.00 0.00 0.00 74 1018.3
20260905130039 25 340 0.0 0.0 0.00 0.00 0.00 68 1018.4
20260905125533 24 340 0.0 0.0 0.00 0.00 0.00 62 1018.4
20260905125034 23 340 0.0 0.0 0.00 0.00 0.00 62 1018.4
20260905124533 23 340 0.0 0.0 0.00 0.00 0.00 64 1018.4
20260905124032 23 340 0.0 0.0 0.00 0.00 0.00 65 1018.4
20260905123532 22 340 0.0 0.0 0.00 0.00 0.00 65 1018.3
20260905123032 21 340 0.0 0.0 0.00 0.00 0.00 66 1018.4
20260905122034 21 340 0.0 0.0 0.00 0.00 0.00 66 1018.5
20260905121542 21 340 0.0 0.0 0.00 0.00 0.00 67 1018.3
20260905121036 21 340 0.0 0.0 0.00 0.00 0.00 67 1018.3
20260905120533 21 340 0.0 0.0 0.00 0.00 0.00 66 1018.3
20260905120033 21 340 0.0 0.0 0.00 0.00 0.00 67 1018.2
20260905115537 20 340 0.0 0.0 0.00 0.00 0.00 67 1018.2
20260905115035 20 340 0.0 0.0 0.00 0.00 0.00 67 1018.2
20260905114541 20 340 0.0 0.0 0.00 0.00 0.00 67 1018.1
20260905114033 20 340 0.0 0.0 0.00 0.00 0.00 67 1018.0
20260905113533 20 340 0.0 0.0 0.00 0.00 0.00 66 1017.9
20260905113032 20 323 0.0 0.0 0.00 0.00 0.00 67 1017.9
20260905112031 20 323 0.0 0.0 0.00 0.00 0.00 66 1017.8
20260905111534 20 323 0.0 0.0 0.00 0.00 0.00 66 1017.7
20260905111031 20 323 0.0 0.0 0.00 0.00 0.00 66 1017.5
20260905110531 20 323 0.0 0.0 0.00 0.00 0.00 66 1017.4
20260905110032 20 323 0.0 0.0 0.00 0.00 0.00 66 1017.3
20260905105531 20 7 0.0 0.0 0.00 0.00 0.00 66 1017.4
20260905105031 20 7 0.0 0.0 0.00 0.00 0.00 66 1017.3
20260905104529 20 229 0.0 0.0 0.00 0.00 0.00 66 1017.1
20260905104032 20 229 0.0 0.0 0.00 0.00 0.00 66 1017.0
20260905103529 20 229 0.0 0.0 0.00 0.00 0.00 66 1017.1
20260905103030 21 229 0.0 0.0 0.00 0.00 0.00 66 1017.0
20260905102029 21 229 0.0 0.0 0.00 0.00 0.00 66 1017.1
20260905101528 20 229 0.0 0.0 0.00 0.00 0.00 66 1016.9
20260905101028 20 229 0.0 0.0 0.00 0.00 0.00 66 1017.0
20260905100528 20 229 0.0 0.0 0.00 0.00 0.00 65 1016.9
20260905100028 20 229 0.0 0.0 0.00 0.00 0.00 65 1016.9
20260905095528 20 229 0.0 0.0 0.00 0.00 0.00 65 1016.9
20260905095028 20 229 0.0 0.0 0.00 0.00 0.00 65 1016.9
20260905094527 20 229 0.0 0.0 0.00 0.00 0.00 65 1017.0
20260905094029 21 229 0.0 0.0 0.00 0.00 0.00 65 1017.1
20260905093526 21 229 0.0 0.0 0.00 0.00 0.00 65 1017.0
20260905093026 21 229 0.0 0.0 0.00 0.00 0.00 65 1017.0
20260905092029 21 229 0.0 0.0 0.00 0.00 0.00 65 1016.9
20260905091531 21 229 0.0 0.0 0.00 0.00 0.00 65 1017.0
20260905091024 21 229 0.0 0.0 0.00 0.00 0.00 65 1017.0
20260905090525 21 229 0.0 0.0 0.00 0.00 0.00 65 1017.0
20260905090026 21 229 0.0 0.0 0.00 0.00 0.00 65 1017.1
20260905085524 21 229 0.0 0.0 0.00 0.00 0.00 64 1017.0
20260905085023 21 229 0.0 0.0 0.00 0.00 0.00 64 1017.0
20260905084522 21 229 0.0 0.0 0.00 0.00 0.00 64 1017.1
20260905084021 21 229 0.0 0.0 0.00 0.00 0.00 64 1017.2
20260905083521 21 228 0.0 0.0 0.00 0.00 0.00 64 1017.4
20260905083019 21 229 0.0 0.0 0.00 0.00 0.00 64 1017.4
20260905082020 21 229 0.0 0.0 0.00 0.00 0.00 64 1017.6
20260905081519 21 229 0.0 0.0 0.00 0.00 0.00 64 1017.4
20260905081018 21 229 0.0 0.0 0.00 0.00 0.00 64 1017.5
20260905080518 21 229 0.0 0.0 0.00 0.00 0.00 64 1017.6
20260905080019 21 229 0.0 0.0 0.00 0.00 0.00 64 1017.6
20260905075518 21 229 0.0 0.0 0.00 0.00 0.00 64 1017.7
20260905075017 21 229 0.0 0.0 0.00 0.00 0.00 64 1017.8
20260905074517 21 229 0.0 0.0 0.00 0.00 0.00 64 1017.8
20260905074017 21 229 0.0 0.0 0.00 0.00 0.00 63 1017.8
20260905073521 21 229 0.0 0.0 0.00 0.00 0.00 63 1017.7
20260905073018 21 229 0.0 0.0 0.00 0.00 0.00 63 1017.8
20260905072020 21 229 0.0 0.0 0.00 0.00 0.00 63 1017.9
20260905071517 21 229 0.0 0.0 0.00 0.00 0.00 63 1017.9
20260905071017 21 229 0.0 0.0 0.00 0.00 0.00 63 1018.0
20260905070517 21 229 0.0 0.0 0.00 0.00 0.00 63 1018.1
20260905070017 22 229 0.0 0.0 0.00 0.00 0.00 63 1018.1
20260905065517 22 229 0.0 0.0 0.00 0.00 0.00 63 1018.2
20260905065015 22 229 0.0 0.0 0.00 0.00 0.00 63 1018.1
20260905064516 22 229 0.0 0.0 0.00 0.00 0.00 63 1018.3
20260905064020 22 229 0.0 0.0 0.00 0.00 0.00 63 1018.3
20260905063515 22 229 0.0 0.0 0.00 0.00 0.00 62 1018.2
20260905063017 22 229 0.0 0.0 0.00 0.00 0.00 62 1018.3
20260905062012 22 229 0.0 0.0 0.00 0.00 0.00 62 1018.4
20260905061527 22 228 0.0 0.0 0.00 0.00 0.00 62 1018.4
20260905061013 22 229 0.0 0.0 0.00 0.00 0.00 62 1018.6
20260905060512 22 229 0.0 0.0 0.00 0.00 0.00 62 1018.7
20260905060011 22 229 0.0 0.0 0.00 0.00 0.00 62 1018.7
20260905055513 22 229 0.0 0.0 0.00 0.00 0.00 62 1018.7
20260905055011 22 229 0.0 0.0 0.00 0.00 0.00 62 1018.9
20260905054510 22 229 0.0 0.0 0.00 0.00 0.00 62 1018.9
20260905054010 22 229 0.0 0.0 0.00 0.00 0.00 62 1019.0
20260905053513 22 229 0.0 0.0 0.00 0.00 0.00 62 1018.9
20260905053014 22 229 0.0 0.0 0.00 0.00 0.00 62 1018.8
20260905052010 22 229 0.0 0.0 0.00 0.00 0.00 62 1018.8
20260905051517 22 229 0.0 0.0 0.00 0.00 0.00 62 1018.8
20260905051009 22 229 0.0 0.0 0.00 0.00 0.00 62 1018.8
20260905050509 22 271 0.0 0.0 0.00 0.00 0.00 62 1018.9
20260905050010 22 271 0.0 0.0 0.00 0.00 0.00 62 1018.8
20260905045509 22 271 0.0 0.0 0.00 0.00 0.00 62 1018.8
20260905045009 22 189 0.0 0.0 0.00 0.00 0.00 62 1018.8
20260905044509 22 240 0.0 0.0 0.00 0.00 0.00 62 1018.7
20260905044009 22 212 0.0 0.0 0.00 0.00 0.00 62 1018.8
20260905043508 22 212 0.0 0.0 0.00 0.00 0.00 62 1018.8
20260905043008 22 212 0.0 0.0 0.00 0.00 0.00 62 1018.8
20260905042009 22 212 0.0 0.0 0.00 0.00 0.00 62 1018.7
20260905041512 22 212 0.0 0.0 0.00 0.00 0.00 62 1018.7
20260905041007 22 212 0.0 0.0 0.00 0.00 0.00 62 1018.8
20260905040508 23 212 0.0 0.0 0.00 0.00 0.00 62 1018.7
20260905040007 23 212 0.0 0.0 0.00 0.00 0.00 62 1018.6
20260905035507 23 212 0.0 0.0 0.00 0.00 0.00 62 1018.8
20260905035007 23 212 0.0 0.0 0.00 0.00 0.00 62 1018.8
20260905034507 23 212 0.0 0.0 0.00 0.00 0.00 62 1018.7
20260905034007 23 212 0.0 0.0 0.00 0.00 0.00 62 1018.6
20260905033506 23 212 0.0 0.0 0.00 0.00 0.00 62 1018.6
20260905033006 23 212 0.0 0.0 0.00 0.00 0.00 62 1018.4